JST7529 YSSY-YMML

Flight info

Callsign JST7529
Flight time 1h 2m
Altitude 36000
Route TESAT H65 LEECE Q29 ML
Aircraft A321/M-SDE3FGHIRWY/LB1

Departure

Time 2026-04-30 14:01
Airport Sydney Kingsford Smith International Airport (YSSY)

Arrival

Time 2026-04-30 15:03
Airport Melbourne Airport (YMML)
Time Latitude Longitude Altitude Speed Heading
2026-04-30 13:51 -33.93559 151.17682 30 ft 0 kts 99°
2026-04-30 13:53 -33.93558 151.17676 30 ft 4 kts 99°
2026-04-30 13:54 -33.93553 151.17644 30 ft 4 kts 99°
2026-04-30 13:54 -33.93549 151.17612 30 ft 4 kts 99°
2026-04-30 13:54 -33.93545 151.17581 30 ft 3 kts 99°
2026-04-30 13:54 -33.93544 151.17576 30 ft 0 kts 99°
2026-04-30 13:57 -33.93543 151.17577 30 ft 0 kts 92°
2026-04-30 13:57 -33.93540 151.17580 30 ft 2 kts 51°
2026-04-30 13:58 -33.93486 151.17586 30 ft 12 kts 354°
2026-04-30 13:58 -33.93308 151.17574 30 ft 14 kts 347°
2026-04-30 13:58 -33.93207 151.17547 30 ft 15 kts 347°
2026-04-30 13:59 -33.93103 151.17518 30 ft 13 kts 340°
2026-04-30 13:59 -33.93074 151.17453 30 ft 9 kts 286°
2026-04-30 13:59 -33.93022 151.17412 30 ft 10 kts 346°
2026-04-30 13:59 -33.92968 151.17361 31 ft 11 kts 290°
2026-04-30 14:00 -33.92953 151.17271 31 ft 11 kts 273°
2026-04-30 14:00 -33.93079 151.17196 30 ft 17 kts 168°
2026-04-30 14:00 -33.93334 151.17262 29 ft 72 kts 168°
2026-04-30 14:01 -33.94055 151.17450 27 ft 137 kts 168°
2026-04-30 14:01 -33.95138 151.17741 94 ft 179 kts 168°
2026-04-30 14:01 -33.96355 151.18070 698 ft 180 kts 168°
2026-04-30 14:01 -33.97628 151.18160 1324 ft 187 kts 184°
2026-04-30 14:02 -33.98922 151.17970 1985 ft 186 kts 186°
2026-04-30 14:02 -34.00222 151.17782 2545 ft 190 kts 185°
2026-04-30 14:02 -34.01548 151.17611 3129 ft 192 kts 183°
2026-04-30 14:02 -34.02890 151.17383 3595 ft 204 kts 198°
2026-04-30 14:03 -34.04203 151.16505 3819 ft 228 kts 210°
2026-04-30 14:03 -34.05127 151.15826 3958 ft 243 kts 211°
2026-04-30 14:03 -34.07162 151.14338 4445 ft 271 kts 210°
2026-04-30 14:03 -34.08801 151.13148 5127 ft 278 kts 210°
2026-04-30 14:04 -34.10469 151.11939 5890 ft 282 kts 210°
2026-04-30 14:04 -34.11612 151.11111 6410 ft 284 kts 210°
2026-04-30 14:04 -34.13877 151.09478 7395 ft 289 kts 210°
2026-04-30 14:04 -34.15025 151.08652 7880 ft 291 kts 210°
2026-04-30 14:05 -34.16773 151.07393 8612 ft 294 kts 211°
2026-04-30 14:05 -34.18540 151.06120 9332 ft 298 kts 211°
2026-04-30 14:05 -34.20334 151.04823 10081 ft 301 kts 211°
2026-04-30 14:05 -34.22759 151.03067 10697 ft 319 kts 212°
2026-04-30 14:06 -34.24075 151.02114 10801 ft 334 kts 211°
2026-04-30 14:06 -34.28276 150.99082 11305 ft 367 kts 211°
2026-04-30 14:07 -34.32713 150.95871 12567 ft 375 kts 211°
2026-04-30 14:07 -34.34962 150.94241 13231 ft 378 kts 211°
2026-04-30 14:07 -34.37223 150.92602 13911 ft 381 kts 211°
2026-04-30 14:08 -34.41807 150.89286 15120 ft 387 kts 211°
2026-04-30 14:08 -34.44124 150.87605 15719 ft 390 kts 211°
2026-04-30 14:08 -34.48772 150.84221 16916 ft 395 kts 211°
2026-04-30 14:09 -34.51139 150.82495 17508 ft 399 kts 212°
2026-04-30 14:09 -34.53521 150.80751 18118 ft 401 kts 213°
2026-04-30 14:09 -34.57597 150.76152 19190 ft 405 kts 234°
2026-04-30 14:10 -34.59256 150.73374 19691 ft 408 kts 235°
2026-04-30 14:10 -34.60931 150.70576 20166 ft 412 kts 235°
2026-04-30 14:10 -34.62611 150.67793 20650 ft 415 kts 234°
2026-04-30 14:10 -34.64327 150.64953 21115 ft 419 kts 234°
2026-04-30 14:11 -34.66055 150.62092 21584 ft 422 kts 234°
2026-04-30 14:11 -34.67799 150.59200 22016 ft 425 kts 234°
2026-04-30 14:11 -34.69555 150.56287 22448 ft 429 kts 234°
2026-04-30 14:11 -34.71323 150.53352 22876 ft 432 kts 234°
2026-04-30 14:12 -34.73100 150.50397 23290 ft 435 kts 234°
2026-04-30 14:12 -34.74885 150.47417 23717 ft 438 kts 234°
2026-04-30 14:12 -34.76660 150.44444 24104 ft 441 kts 234°
2026-04-30 14:12 -34.78462 150.41425 24495 ft 442 kts 234°
2026-04-30 14:13 -34.80272 150.38386 24874 ft 444 kts 234°
2026-04-30 14:13 -34.82089 150.35338 25253 ft 446 kts 234°
2026-04-30 14:13 -34.83915 150.32277 25630 ft 448 kts 234°
2026-04-30 14:13 -34.85750 150.29202 25989 ft 449 kts 234°
2026-04-30 14:14 -34.87591 150.26119 26349 ft 452 kts 234°
2026-04-30 14:14 -34.89441 150.23019 26715 ft 453 kts 234°
2026-04-30 14:14 -34.91297 150.19906 27055 ft 455 kts 234°
2026-04-30 14:14 -34.93131 150.16821 27397 ft 457 kts 234°
2026-04-30 14:15 -34.94991 150.13680 27723 ft 458 kts 234°
2026-04-30 14:15 -34.96862 150.10516 28050 ft 461 kts 234°
2026-04-30 14:15 -34.98739 150.07340 28390 ft 462 kts 234°
2026-04-30 14:15 -35.00621 150.04159 28726 ft 464 kts 234°
2026-04-30 14:16 -35.02517 150.00957 29044 ft 466 kts 234°
2026-04-30 14:16 -35.04415 149.97751 29367 ft 468 kts 234°
2026-04-30 14:16 -35.06327 149.94522 29670 ft 470 kts 234°
2026-04-30 14:16 -35.08239 149.91290 30080 ft 469 kts 234°
2026-04-30 14:17 -35.10115 149.88113 30521 ft 467 kts 234°
2026-04-30 14:17 -35.12012 149.84891 30876 ft 467 kts 234°
2026-04-30 14:17 -35.13901 149.81674 31242 ft 466 kts 234°
2026-04-30 14:17 -35.15785 149.78465 31607 ft 464 kts 234°
2026-04-30 14:18 -35.17662 149.75261 31982 ft 463 kts 234°
2026-04-30 14:18 -35.19540 149.72061 32349 ft 462 kts 234°
2026-04-30 14:18 -35.23272 149.65696 33084 ft 459 kts 234°
2026-04-30 14:19 -35.26959 149.59399 33788 ft 457 kts 235°
2026-04-30 14:19 -35.28805 149.56233 34129 ft 456 kts 235°
2026-04-30 14:19 -35.30643 149.53075 34471 ft 455 kts 235°
2026-04-30 14:20 -35.32481 149.49916 34768 ft 454 kts 235°
2026-04-30 14:20 -35.34312 149.46771 35073 ft 453 kts 235°
2026-04-30 14:20 -35.37959 149.40512 35673 ft 450 kts 235°
2026-04-30 14:21 -35.39749 149.37433 35965 ft 449 kts 235°
2026-04-30 14:21 -35.41555 149.34320 36267 ft 447 kts 235°
2026-04-30 14:21 -35.45155 149.28110 36468 ft 445 kts 236°
2026-04-30 14:22 -35.46941 149.25021 36469 ft 444 kts 236°
2026-04-30 14:22 -35.52289 149.15755 36470 ft 443 kts 236°
2026-04-30 14:23 -35.59391 149.03439 36489 ft 443 kts 236°
2026-04-30 14:24 -35.64721 148.94152 36495 ft 444 kts 236°
2026-04-30 14:25 -35.71806 148.81763 36517 ft 444 kts 237°
2026-04-30 14:26 -35.77132 148.72447 36514 ft 444 kts 237°
2026-04-30 14:27 -35.82452 148.63102 36513 ft 444 kts 237°
2026-04-30 14:27 -35.85966 148.56914 36514 ft 444 kts 237°
2026-04-30 14:28 -35.91262 148.47545 36501 ft 444 kts 238°
2026-04-30 14:28 -35.94780 148.41292 36499 ft 444 kts 238°
2026-04-30 14:29 -36.01791 148.28804 36489 ft 444 kts 238°
2026-04-30 14:31 -36.10567 148.13125 36465 ft 443 kts 238°
2026-04-30 14:31 -36.15788 148.03764 36458 ft 442 kts 238°
2026-04-30 14:32 -36.21041 147.94361 36448 ft 443 kts 238°
2026-04-30 14:33 -36.24541 147.88071 36447 ft 444 kts 238°
2026-04-30 14:33 -36.29766 147.78664 36452 ft 444 kts 238°
2026-04-30 14:34 -36.33263 147.72361 36456 ft 444 kts 238°
2026-04-30 14:34 -36.36762 147.66033 36438 ft 445 kts 238°
2026-04-30 14:35 -36.41990 147.56529 36452 ft 446 kts 239°
2026-04-30 14:36 -36.45462 147.50217 36452 ft 445 kts 239°
2026-04-30 14:36 -36.48951 147.43864 36442 ft 445 kts 239°
2026-04-30 14:37 -36.52424 147.37505 36444 ft 445 kts 239°
2026-04-30 14:37 -36.55878 147.31165 36442 ft 446 kts 238°
2026-04-30 14:38 -36.59357 147.24793 36451 ft 445 kts 239°
2026-04-30 14:38 -36.62833 147.18421 36455 ft 446 kts 239°
2026-04-30 14:39 -36.66299 147.12040 36447 ft 445 kts 239°
2026-04-30 14:39 -36.69770 147.05627 36449 ft 447 kts 239°
2026-04-30 14:40 -36.74955 146.96063 36452 ft 446 kts 240°
2026-04-30 14:40 -36.78410 146.89658 36448 ft 445 kts 239°
2026-04-30 14:41 -36.81857 146.83251 36163 ft 444 kts 239°
2026-04-30 14:41 -36.83578 146.80052 35922 ft 445 kts 239°
2026-04-30 14:41 -36.85281 146.76881 35675 ft 444 kts 239°
2026-04-30 14:42 -36.87008 146.73672 35435 ft 445 kts 240°
2026-04-30 14:42 -36.88737 146.70449 35197 ft 448 kts 240°
2026-04-30 14:42 -36.90470 146.67216 34955 ft 449 kts 240°
2026-04-30 14:42 -36.92210 146.63966 34717 ft 450 kts 240°
2026-04-30 14:43 -36.93949 146.60715 34481 ft 451 kts 240°
2026-04-30 14:43 -36.95698 146.57445 34228 ft 452 kts 240°
2026-04-30 14:43 -36.97441 146.54176 33955 ft 453 kts 240°
2026-04-30 14:43 -36.99168 146.50933 33676 ft 453 kts 240°
2026-04-30 14:44 -37.00913 146.47654 33430 ft 454 kts 240°
2026-04-30 14:44 -37.02664 146.44364 33162 ft 454 kts 240°
2026-04-30 14:44 -37.04419 146.41071 32776 ft 455 kts 240°
2026-04-30 14:44 -37.06182 146.37756 31885 ft 459 kts 240°
2026-04-30 14:45 -37.07954 146.34417 30991 ft 463 kts 240°
2026-04-30 14:45 -37.09724 146.31076 29951 ft 468 kts 239°
2026-04-30 14:45 -37.11527 146.27666 28955 ft 470 kts 239°
2026-04-30 14:45 -37.13335 146.24244 27927 ft 473 kts 239°
2026-04-30 14:46 -37.15151 146.20808 26877 ft 469 kts 239°
2026-04-30 14:46 -37.16939 146.17431 25976 ft 460 kts 239°
2026-04-30 14:46 -37.18699 146.14106 25474 ft 454 kts 239°
2026-04-30 14:46 -37.20437 146.10816 24920 ft 451 kts 239°
2026-04-30 14:47 -37.22165 146.07534 24217 ft 450 kts 239°
2026-04-30 14:47 -37.23878 146.04274 23482 ft 446 kts 239°
2026-04-30 14:47 -37.25557 146.01074 22807 ft 441 kts 240°
2026-04-30 14:47 -37.27232 145.97877 22133 ft 436 kts 240°
2026-04-30 14:48 -37.28888 145.94707 21476 ft 431 kts 240°
2026-04-30 14:48 -37.30526 145.91571 20826 ft 427 kts 240°
2026-04-30 14:48 -37.32151 145.88473 20181 ft 422 kts 240°
2026-04-30 14:48 -37.33760 145.85420 19565 ft 418 kts 240°
2026-04-30 14:49 -37.35358 145.82387 18971 ft 413 kts 241°
2026-04-30 14:49 -37.36935 145.79388 18350 ft 410 kts 241°
2026-04-30 14:49 -37.38494 145.76415 17777 ft 405 kts 241°
2026-04-30 14:49 -37.40036 145.73471 17228 ft 401 kts 240°
2026-04-30 14:50 -37.43041 145.67716 16172 ft 392 kts 240°
2026-04-30 14:50 -37.44527 145.64859 15637 ft 388 kts 240°
2026-04-30 14:51 -37.47600 145.59263 15322 ft 391 kts 237°
2026-04-30 14:51 -37.49216 145.56507 15325 ft 392 kts 236°
2026-04-30 14:51 -37.52474 145.51036 15322 ft 393 kts 236°
2026-04-30 14:52 -37.54107 145.48266 15324 ft 394 kts 237°
2026-04-30 14:52 -37.57330 145.42733 15308 ft 379 kts 237°
2026-04-30 14:52 -37.58847 145.40121 15313 ft 359 kts 237°
2026-04-30 14:53 -37.61668 145.35245 14751 ft 338 kts 238°
2026-04-30 14:53 -37.63043 145.32848 14024 ft 337 kts 238°
2026-04-30 14:54 -37.65783 145.28077 12419 ft 334 kts 237°
2026-04-30 14:54 -37.68484 145.23381 10901 ft 331 kts 237°
2026-04-30 14:55 -37.71177 145.18715 9363 ft 326 kts 237°
2026-04-30 14:55 -37.72508 145.16407 8576 ft 325 kts 237°
2026-04-30 14:55 -37.75145 145.11813 7058 ft 321 kts 238°
2026-04-30 14:56 -37.77730 145.07294 5528 ft 319 kts 239°
2026-04-30 14:56 -37.80254 145.02905 4837 ft 290 kts 239°
2026-04-30 14:57 -37.81267 145.00842 4697 ft 263 kts 253°
2026-04-30 14:57 -37.82146 144.96563 3812 ft 249 kts 265°
2026-04-30 14:58 -37.82724 144.92494 3352 ft 216 kts 284°
2026-04-30 14:58 -37.82264 144.90842 3194 ft 190 kts 308°
2026-04-30 14:58 -37.81012 144.88006 2724 ft 181 kts 296°
2026-04-30 14:59 -37.79661 144.86182 2372 ft 128 kts 351°
2026-04-30 15:00 -37.77119 144.85697 1915 ft 122 kts 356°
2026-04-30 15:00 -37.75443 144.85385 1594 ft 123 kts 355°
2026-04-30 15:01 -37.73713 144.85063 1264 ft 132 kts 352°
2026-04-30 15:01 -37.72785 144.84871 1128 ft 137 kts 351°
2026-04-30 15:01 -37.70868 144.84525 811 ft 139 kts 353°
2026-04-30 15:02 -37.69926 144.84326 646 ft 138 kts 352°
2026-04-30 15:02 -37.68967 144.84164 492 ft 139 kts 353°
2026-04-30 15:03 -37.66809 144.83771 389 ft 50 kts 352°
2026-04-30 15:03 -37.66508 144.83875 404 ft 11 kts 92°
2026-04-30 15:04 -37.66630 144.83956 395 ft 16 kts 171°
2026-04-30 15:04 -37.67089 144.84041 382 ft 27 kts 172°
2026-04-30 15:05 -37.67495 144.84144 371 ft 15 kts 122°
2026-04-30 15:06 -37.67476 144.84386 377 ft 13 kts 82°
2026-04-30 15:06 -37.67450 144.84621 381 ft 13 kts 81°
2026-04-30 15:07 -37.67481 144.84734 381 ft 6 kts 172°
2026-04-30 15:07 -37.67522 144.84741 380 ft 0 kts 171°